sat.trackr.live / text

‹ back to catalog

STARLINK-11187 [DTC]

NORAD 60184 · 2024-124B

PAYLOAD ACTIVE UNKNOWN

§ Identity

Operator
Country
US
Launch date
2024-07-03
Launch site
AFETR
Launch vehicle
Mass (kg)
RCS (m²)

Purposes: comms

External: N2YO · Heavens-Above · Gunter

§ Orbital elements

Epoch: 2026-09-20T05:57:41.988096Z

Period
91.74 min
Inclination
53.1585°
Eccentricity
0.0001019
Mean motion
15.69705037 rev/d
Perigee alt
359.1 km
Apogee alt
360.4 km
Semi-major
6,737.9 km
B*
8.0894e-8
RAAN
282.0112°
Arg perigee
74.1610°
Mean anomaly
285.9520°
Rev number
12,709

§ Raw data

STARLINK-11187 [DTC]1 60184U 24124B   26263.24840264 -.00000579  00000+0  80894-7 0  99982 60184  53.1585 282.0112 0001019  74.1610 285.9520 15.69705037127097

JSON: /api/v1/satellites/60184 · /tle

For live sub-satellite position, see the globe view (requires WebGL).

§ Visibility from observer

Set your observer location to see the next 7 days of passes ≥ 10°. The values pass through the URL so the page stays shareable.

No JS? Fill the form by hand. The geolocation button needs JavaScript.